Find Starlink 4167

NORAD ID: 53033 Int'l Des: 2022-076 Owner: SPXS Country: US Constellation: starlink operational
LEOCIRCULAR

Current View

Loading 3D Globe...

About Starlink 4167

Description loading...

Upcoming Passes

Passes for default location (London). Set your location on the main map for personalized predictions.

Altitude History

Loading altitude history...

Two-Line Element Set

1 53033U 22076AZ 26148.97420001 -.00000601 00000-0 -19669-4 0 9999
2 53033 53.2035 73.7029 0001799 91.1839 268.9359 15.08844419215249
Epoch: May 28, 2026 • Age: 28 hours

Current Status

Altitude 559.4 km
Velocity 7.58 km/s
Sub-Earth Point -52.89°S, 26.68°E
Launch Date Jul 7, 2022
Age 3.8 years
Type internet

Technical Details

Classification Payload
Mass 297.00 kg
Dry Mass 275.00 kg
Total Mass 297.00 kg
Length 0.20 m
Diameter 2.80 m
Span 9.00 m
Shape Box + pan
Manufacturer SPXS
Bus Type Starlink
Phase Status In Orbit
Owner/State SPXS/US

Most Searched